EDT,Max TemperatureF,Mean TemperatureF,Min TemperatureF,Max Dew PointF,MeanDew PointF,Min DewpointF,Max Humidity, Mean Humidity, Min Humidity, Max Sea Level PressureIn, Mean Sea Level PressureIn, Min Sea Level PressureIn, Max VisibilityMiles, Mean VisibilityMiles, Min VisibilityMiles, Max Wind SpeedMPH, Mean Wind SpeedMPH, Max Gust SpeedMPH,PrecipitationIn, CloudCover, Events, WindDirDegrees
2012-9-1,82,73,64,66,61,50,83,72,32,30.14,30.02,29.94,10,10,10,13,3,,0.00,2,,80
2012-9-2,78,69,60,64,61,57,88,80,57,30.16,30.12,30.07,10,10,6,8,3,,0.00,5,Rain,133
2012-9-3,73,66,59,63,58,55,94,79,57,30.23,30.18,30.15,10,10,8,10,4,,0.00,4,,110
2012-9-4,75,70,64,72,65,61,94,88,83,30.17,30.05,29.90,10,8,5,10,5,16,0.00,8,,150
2012-9-5,78,71,64,72,68,61,94,88,61,29.88,29.84,29.81,10,6,2,12,8,18,0.46,6,Rain-Thunderstorm,262
2012-9-6,77,68,60,68,63,59,94,87,69,29.95,29.91,29.87,10,8,0,7,3,,0.00,2,,254
2012-9-7,82,72,62,70,66,61,94,85,61,29.97,29.93,29.88,10,6,0,12,2,,0.00,2,,176
2012-9-8,77,70,62,72,66,59,94,88,83,29.92,29.81,29.64,10,7,1,21,7,33,0.03,6,Rain-Thunderstorm,185
2012-9-9,71,64,57,59,55,52,94,79,50,29.91,29.85,29.79,10,10,10,12,4,17,0.05,4,,333
2012-9-10,66,57,48,54,46,39,88,69,42,30.15,29.99,29.91,10,10,10,21,7,26,0.00,2,,343
2012-9-11,68,55,42,46,41,37,81,70,43,30.30,30.21,30.15,10,10,10,9,6,,0.00,0,,334
2012-9-12,77,62,46,55,51,43,93,67,38,30.40,30.38,30.34,10,10,10,7,2,,0.00,0,Fog,190
2012-9-13,78,64,51,57,54,48,94,78,47,30.41,30.36,30.31,10,10,8,8,1,16,0.00,0,Fog,203
2012-9-14,77,66,55,61,57,52,94,80,47,30.33,30.24,30.13,10,10,10,8,1,,0.00,0,,198
2012-9-15,66,57,48,59,51,45,94,77,49,30.14,30.11,30.08,10,10,8,17,5,26,0.00,3,Rain,342
2012-9-16,68,56,44,48,45,39,93,73,43,30.15,30.11,30.06,10,10,10,12,3,,0.00,1,,336
2012-9-17,75,60,44,54,47,41,93,79,47,30.14,30.10,30.07,10,10,10,7,2,,0.00,1,,195
2012-9-18,71,64,57,66,61,50,94,86,68,30.08,29.91,29.72,10,7,1,26,9,40,1.53,7,Rain,178
2012-9-19,66,57,48,63,49,39,94,72,45,30.22,29.99,29.76,10,10,8,15,7,24,0.00,4,,352
2012-9-20,64,56,48,52,44,39,82,69,59,30.25,30.21,30.16,10,10,10,12,7,,0.00,3,,76
2012-9-21,69,60,51,52,48,46,94,78,46,30.17,30.12,30.05,10,10,10,8,2,,0.00,1,,143
2012-9-22,68,60,51,64,54,48,94,86,72,30.05,29.96,29.84,10,9,5,13,3,26,0.11,7,Fog,172
2012-9-23,62,54,46,55,48,39,100,79,45,30.13,30.01,29.88,10,8,0,12,3,23,0.00,3,,327
2012-9-24,78,60,42,55,40,37,93,75,42,30.18,30.14,30.10,10,10,10,12,2,,0.00,3,Fog,328
2012-9-25,68,55,42,54,43,37,82,71,43,30.21,30.17,30.15,10,10,10,9,2,22,0.00,1,,212
2012-9-26,68,64,59,61,57,52,88,81,72,30.17,30.11,30.06,10,9,7,9,6,,0.01,7,Rain,223
2012-9-27,71,64,57,59,53,45,88,76,50,30.24,30.15,30.06,10,9,5,9,3,,0.00,4,,19
2012-9-28,57,55,53,54,51,46,94,88,67,30.22,30.12,29.98,10,7,2,9,6,17,0.17,8,Rain,62
2012-9-29,57,55,53,52,51,50,94,89,82,29.98,29.94,29.90,10,9,3,10,6,,0.00,8,Rain,28
2012-9-30,64,57,50,52,50,45,94,83,52,29.91,29.85,29.78,10,10,8,7,2,,0.00,6,,332